Regional Weather Roundup
Issued by NWS

Home | Current Version | Previous Version | Graphics & Text | Print | Product List | Glossary On
Versions: 1 2 3 4 5 6 7 8 9 10 11 12 13 14 15 16 17 18 19 20 21 22 23 24 25 26 27 28 29 30 31 32 33 34 35 36 37 38 39 40 41 42 43 44 45 46 47 48 49 50
000
ASUS44 KMEG 261210
RWRTN
TENNESSEE HOURLY STATE WEATHER ROUNDUP
NATIONAL WEATHER SERVICE MEMPHIS TN
700 AM CDT SUN APR 26 2015

TNZ002-004-019-021-049-052-054-088>092-261300-
WEST TENNESSEE

CITY           SKY/WX    TMP DP  RH WIND       PRES   REMARKS
MEMPHIS INTL   PTCLDY    62  57  83 N8        29.74R
NWS MEMPHIS      N/A     60 N/A N/A MISG        N/A
JACKSON        CLOUDY    60  57  89 N6        29.74R
DYERSBURG      CLOUDY    57  43  58 N9        29.77R
UNION CITY     CLOUDY    52  32  46 N13       29.76R
PARIS          CLOUDY    50  48  93 N8        29.76R
LEXINGTON      MOCLDY    57  55  94 N5        29.71R
SAVANNAH       CLEAR     57  32  38 CALM      29.72R
$$

TNZ008-025-027-028-033-062-065-066-261300-
NORTH MIDDLE TENNESSEE

CITY           SKY/WX    TMP DP  RH WIND       PRES   REMARKS
NASHVILLE      CLOUDY    56  54  93 N9        29.72R FOG
CLARKSVILLE    CLOUDY    51  50  96 N13       29.75R FOG
SMYRNA         CLOUDY    57  55  93 N12       29.72R FOG
COOKEVILLE     CLOUDY    61  61 100 CALM      29.67R
CROSSVILLE     CLOUDY    59  55  87 W3        29.69R
$$

TNZ061-075-076-078-094-096-097-261300-
SOUTH MIDDLE TENNESSEE

CITY           SKY/WX    TMP DP  RH WIND       PRES   REMARKS
FAYETTEVILLE   MOSUNNY   55  55 100 NW3       29.70R
TULLAHOMA      SUNNY     54  54 100 CALM      29.71R
WINCHESTER     PTSUNNY   57  57 100 CALM      29.70R
MCMINNVILLE    CLOUDY    59  59 100 W3        29.69R
COLUMBIA       PTSUNNY   57  32  38 CALM      29.69R
SHELBYVILLE    PTSUNNY   57  57 100 CALM      29.71R
$$

TNZ017-018-042-046-047-261300-
NORTHEAST TENNESSEE

CITY           SKY/WX    TMP DP  RH WIND       PRES   REMARKS
TRI CITIES     CLOUDY    60  58  92 SW5       29.61R
ELIZABETHTON   CLOUDY    57  55  94 SW6       29.61R
$$

TNZ012-013-036-069-073-074-261300-
CENTRAL EAST TENNESSEE

CITY           SKY/WX    TMP DP  RH WIND       PRES   REMARKS
KNOXVILLE      PTSUNNY   59  57  93 SW7       29.64R
OAK RIDGE      LGT RAIN  60  58  92 CALM      29.65R
GATLINBURG     PTSUNNY   57  55  94 SW3       29.64R
MORRISTOWN     MOSUNNY   59  59 100 W7        29.65R
$$

TNZ083-085-099-261300-
SOUTHEAST TENNESSEE

CITY           SKY/WX    TMP DP  RH WIND       PRES   REMARKS
CHATTANOOGA    MOSUNNY   62  61  96 CALM      29.67R
$$

SKY/WX REPORTED AS FAIR MEANS FEW OR NO CLOUDS BELOW
12 THOUSAND FEET.




USA.gov is the U.S. government's official web portal to all federal, state and local government web resources and services.